Regional Weather Roundup
Issued by NWS

Home | Current Version | Previous Version | Text Only | Print | Product List | Glossary Off
Versions: 1 2 3 4 5 6 7 8 9 10 11 12 13 14 15 16 17 18 19 20 21 22 23 24 25 26 27 28 29 30 31 32 33 34 35 36 37 38 39 40 41 42 43 44 45 46 47 48 49 50

000
ASUS43 KFSD 211002
RWRSD

WEATHER ROUNDUP FOR SOUTH DAKOTA
NATIONAL WEATHER SERVICE SIOUX FALLS SD
500 AM CDT THU SEP 21 2017

NOTE: "FAIR" INDICATES FEW OR NO CLOUDS BELOW 12,000 FEET WITH NO
SIGNIFICANT WEATHER AND/OR OBSTRUCTIONS TO VISIBILITY.


SDZ001>005-009-010-012>017-211100-
NORTHWEST AND NORTH CENTRAL SOUTH DAKOTA

CITY           SKY/WX    TMP DP  RH WIND       PRES   REMARKS
BUFFALO          N/A     64  36  35 S5        29.61R
FAITH            N/A     55  37  50 SE16      29.68F
MOBRIDGE       CLEAR     61  47  59 SE13      29.71F
$$

SDZ012>016-024>037-041>051-057-063-072>074-211100-
SOUTHWEST AND SOUTH CENTRAL SOUTH DAKOTA

CITY           SKY/WX    TMP DP  RH WIND       PRES   REMARKS
RAPID CTY ARPT NOT AVBL
PIERRE         CLOUDY    57  45  64 SE18      29.75S
CUSTER         CLEAR     51  31  46 S6        29.77F
ELLSWORTH AFB  CLEAR     60  35  40 S20G29    29.65F
PHILIP         CLEAR     62  41  46 S21       29.70F
PINE RIDGE     CLEAR     62  38  40 S26G39    29.70F
SPEARFISH      FAIR      50  37  62 W8        29.67S
WINNER         FAIR      53  44  71 SE16      29.80F
$$

SDZ004>011-016>023-039-040-211100-
NORTHEAST SOUTH DAKOTA

CITY           SKY/WX    TMP DP  RH WIND       PRES   REMARKS
ABERDEEN       CLOUDY    52  47  83 SE8       29.83S
WATERTOWN      CLEAR     52  44  74 S7        29.88F
BROOKINGS      CLEAR     50  44  80 SE9       29.91F
SISSETON         N/A     48  46  93 S6        29.88S
$$

SDZ017-020-022-023-036>040-048>070-211100-
SOUTHEAST SOUTH DAKOTA

CITY           SKY/WX    TMP DP  RH WIND       PRES   REMARKS
SIOUX FALLS    CLEAR     52  46  80 E5        29.91F
HURON          CLEAR     54  48  80 S14       29.85S
MITCHELL       CLEAR     53  48  83 S7        29.87S
YANKTON        CLEAR     52  47  83 E3        29.89S
$$

ABBREVIATIONS USED IN REMARKS
   TC - TEMPERATURE IN CELSIUS
  WCI - WIND CHILL INDEX
   HX - HEAT INDEX
  VSB - VISIBILITY





USA.gov is the U.S. government's official web portal to all federal, state and local government web resources and services.